Regional Weather Roundup
Issued by NWS

Home | Current Version | Previous Version | Text Only | Print | Product List | Glossary Off
Versions: 1 2 3 4 5 6 7 8 9 10 11 12 13 14 15 16 17 18 19 20 21 22 23 24 25 26 27 28 29 30 31 32 33 34 35 36 37 38 39 40 41 42 43 44 45 46 47 48 49 50

000
ASUS43 KMPX 231001
RWRMN
WEATHER ROUNDUP FOR MINNESOTA
NATIONAL WEATHER SERVICE TWIN CITIES/CHANHASSEN MN
400 AM CST FRI FEB 23 2018


NOTE: "FAIR" INDICATES FEW OR NO CLOUDS BELOW 12,000 FEET WITH NO
SIGNIFICANT WEATHER AND/OR OBSTRUCTIONS TO VISIBILITY. N/A MEANS
CURRENT SKY AND/OR WEATHER CONDITIONS ARE NOT AVAILABLE.

MNZ060>063-068>070-231100-
   Twin Cities Metro

CITY           SKY/WX    TMP DP  RH WIND       PRES   REMARKS
TWIN CITIES    LGT SNOW  26  26 100 SE3       30.06R FOG
ST PAUL        CLOUDY    27  25  92 CALM      30.07F FOG
CRYSTAL        LGT SNOW  26  23  88 CALM      30.04F FOG
BLAINE         MIX PCPN  27  27 100 CALM      30.04F
LAKEVILLE      MIX PCPN  25  25 100 CALM      30.04F
EDEN PRAIRIE   CLOUDY    27  23  85 E5        30.04F FOG     WCI  22
SOUTH ST PAUL  CLOUDY    28  27  96 CALM      30.05F
LAKE ELMO      LGT SNOW  28  27  93 CALM      30.05S
$$
MNZ001>005-007-008-013>017-022>024-027-028-231100-
   Northwest Minnesota

CITY           SKY/WX    TMP DP  RH WIND       PRES   REMARKS
BEMIDJI        LGT SNOW  19  18  93 NW3       30.07F
HALLOCK        MOCLDY    10   7  85 W5        30.14F WCI   2
ROSEAU         MOCLDY    12   9  85 CALM      30.12F
WARROAD        FAIR      12   9  85 CALM      30.12F
THIEF RVR FALL LGT SNOW  17  14  88 CALM      30.12F FOG
CROOKSTON      MIX PCPN  18  16  93 CALM      30.14F
FOSSTON        LGT SNOW  18  16  93 N7        30.10F WCI   8
DETROIT LAKES  LGT SNOW  21  21 100 CALM      30.08F
MOORHEAD       LGT RAIN  19  18  93 N8        30.12F WCI   9
PARK RAPIDS    LGT SNOW  20  17  88 N3        30.05F VSB 1
MAHNOMEN       LGT SNOW  20  19  93 N5        30.09F WCI  14
$$
MNZ006-009>011-018-025>026-231100-
   North Central Minnesota

CITY           SKY/WX    TMP DP  RH WIND       PRES   REMARKS
BAUDETTE       LGT SNOW  16  12  84 CALM      30.11F FOG
FLAG ISLAND    CLOUDY     9   5  85 CALM      30.12F
INTL FALLS     LGT SNOW  20  18  92 NE6       30.10F FOG     WCI  12
WASKISH        LGT RAIN  19  18  93 N3        30.10F
BIG FORK       LGT SNOW  21  18  86 CALM      30.07F
LONGVILLE      LGT SNOW  19  19 100 CALM      30.06F VSB 3/4
GRAND RAPIDS   LGT SNOW  20  18  92 CALM      30.08F FOG
CRANE LAKE     LGT SNOW  19  18  93 CALM      30.11F VSB 3/4
ORR            LGT SNOW  19  16  86 CALM      30.05F
COOK           LGT SNOW  19  18  93 CALM      30.07F VSB 1
WALKER         LGT SNOW  19  17  93 CALM      30.07F
$$
MNZ012-019>021-037-231100-
   Northeast Minnesota

CITY           SKY/WX    TMP DP  RH WIND       PRES   REMARKS
DULUTH         LGT SNOW  24  22  91 E10       30.03F VSB 1   WCI  14
ELY            LGT SNOW  18  18 100 CALM      30.06F
HIBBING        LGT SNOW  19  18  95 SE3       30.06F VSB 3/4
EVELETH        LGT SNOW  21  18  86 CALM      30.08F
DULUTH HARBOR  LGT SNOW  27  25  93 NE16      30.09F WCI  14
TWO HARBORS    LGT SNOW  27  21  80 NE6       30.06F WCI  20
GRAND MARAIS     N/A     26  23  88 NE7       30.11F WCI  18
G MARAIS ARPRT LGT SNOW  19  16  86 NE7       30.04F VSB 3/4 WCI  10
$$
MNZ029>031-032-039>041-046>048-054>057-064-231100-
   West Central Minnesota

CITY           SKY/WX    TMP DP  RH WIND       PRES   REMARKS
FERGUS FALLS   LGT SNOW  19  18  93 NE3       30.08F
WHEATON        PTCLDY    19  18  93 CALM      30.12S
MORRIS         CLOUDY    21  19  93 NW5       30.07S WCI  15
ALEXANDRIA     LGT SNOW  20  18  92 N5        30.05F FOG     WCI  13
ELBOW LAKE     LGT SNOW  20  19  96 NE5       30.07F WCI  13
WADENA         LGT SNOW  19  18  93 N3        30.05F
GLENWOOD       LGT SNOW  21  19  93 CALM      30.06S
APPLETON       CLOUDY    21  19  93 NW5       30.09S WCI  15
BENSON         DRIZZLE   21  19  93 CALM      30.09S
MADISON        PTCLDY    19  18  93 W7        30.10S FOG     WCI  10
WILLMAR        MOCLDY    23  21  93 CALM      30.09S
$$
MNZ033>034-036-042>043-049>051-058-059-231100-
   Central Minnesota

CITY           SKY/WX    TMP DP  RH WIND       PRES   REMARKS
ST CLOUD       LGT SNOW  23  22  96 CALM      30.05S FOG
SAUK CENTRE    LGT SNOW  21  20  96 CALM      30.05F
PAYNESVILLE    CLOUDY    22  22  98 W5        30.06S FOG     WCI  16
AITKIN         LGT SNOW  19  18  93 CALM      30.05F
PINE RIVER     LGT SNOW  19  18  93 CALM      30.09F
BRAINERD       LGT SNOW  21  17  84 N6        30.05F FOG     WCI  13
STAPLES        LGT SNOW  19  19 100 CALM      30.06S VSB 3/4
LONG PRAIRIE   MIX PCPN  21  19  93 NW3       30.05F
LITTLE FALLS   FLURRIES  23  21  93 CALM      30.06S
LITCHFIELD     MIX PCPN  25  25 100 CALM      30.06S
BUFFALO        LGT SNOW  25  23  93 CALM      30.06S
MAPLE LAKE     CLOUDY    25  24  96 CALM      30.07R
HUTCHINSON     CLOUDY    25  24  96 CALM      30.07S
$$
MNZ037-044-045-052-053-231100-
   East Central Minnesota

CITY           SKY/WX    TMP DP  RH WIND       PRES   REMARKS
PRINCETON      LGT SNOW  25  23  93 CALM      30.05S
CAMBRIDGE      LGT SNOW  27  21  80 CALM      30.05F
RUSH CITY      LGT SNOW  25  23  93 CALM      30.04F
MOOSE LAKE     LGT SNOW  23  19  86 NE3       30.03F
HINCKLEY       LGT SNOW  27  27 100 CALM      30.05F
CLOQUET        LGT SNOW  23  21  93 E5        30.05F WCI  17
MCGREGOR       CLOUDY    23  21  93 CALM      30.06F VSB 1
$$
MNZ071>073-080-081-089-090-097-098-231100-
   Southwest Minnesota

CITY           SKY/WX    TMP DP  RH WIND       PRES   REMARKS
MONTEVIDEO     CLOUDY    21  21 100 CALM      30.08S FOG
GRANITE FALLS  CLOUDY    25  23  93 SW8       30.10R WCI  16
CANBY          MOCLDY    19  18  93 NW5       30.10S WCI  13
MARSHALL       MOCLDY    19  16  88 MISG      30.09R
REDWOOD FALLS  CLOUDY    25  23  92 W8        30.07F WCI  16
OLIVIA         MOCLDY    27  23  86 SW5       30.06F WCI  21
PIPESTONE      CLOUDY    18  16  93 NW12      30.08S FOG     WCI   5
WORTHINGTON    CLOUDY    22  20  92 W20       30.08F WCI   7
JACKSON        CLOUDY    25  23  93 W14       30.09S WCI  13
TRACY          CLOUDY    24  22  91 W6        30.08R WCI  17
SLAYTON        MOCLDY    21  19  92 W12       30.08S WCI   9
$$
MNZ065>067-074>077-082>085-091>093-231100-
   South Central Minnesota

CITY           SKY/WX    TMP DP  RH WIND       PRES   REMARKS
MANKATO        CLOUDY    29  27  92 W15       30.07S WCI  18
NEW ULM        CLOUDY    27  25  93 W9        30.07S WCI  17
ST JAMES       CLOUDY    27  25  93 W14       30.09R WCI  15
FAIRMONT       CLOUDY    26  23  88 W14       30.09R WCI  14
GLENCOE        CLOUDY    27  27 100 CALM      30.06R
FARIBAULT      MIX PCPN  28  28 100 CALM      30.04F
OWATONNA       MIX PCPN  30  28  93 SW6       30.04F WCI  24
WASECA         CLOUDY    32  32 100 SW15      30.06S WCI  22
ALBERT LEA     CLOUDY    32  30  93 CALM      30.04F
$$
MNZ078>079-086>088-094>096-231100-
   Southeast Minnesota

CITY           SKY/WX    TMP DP  RH WIND       PRES   REMARKS
ROCHESTER      LGT SNOW  31  31 100 SW8       30.03S FOG     WCI  23
RED WING       LGT SNOW  28  27  93 CALM      30.05S
STANTON        LGT SNOW  29  27  93 CALM      30.03F
DODGE CENTER   LGT SNOW  30  30 100 S6        30.02F WCI  24
WINONA         LGT SNOW  32  30  93 CALM      30.04F
AUSTIN         LGT SNOW  30  30 100 SW7       30.04S WCI  23
PRESTON        LGT SNOW  31  31  96 SW5       30.04S WCI  27
$$
ABBREVIATIONS USED IN REMARKS
   TC - TEMPERATURES IN CELSIUS
  WCI - WIND CHILL INDEX
   HX - HEAT INDEX
  VSB - VISIBILITY
$$



USA.gov is the U.S. government's official web portal to all federal, state and local government web resources and services.